Regional Weather Roundup
Issued by NWS

Home | Current Version | Previous Version | Graphics & Text | Print | Product List | Glossary On
Versions: 1 2 3 4 5 6 7 8 9 10 11 12 13 14 15 16 17 18 19 20 21 22 23 24 25 26 27 28 29 30 31 32 33 34 35 36 37 38 39 40 41 42 43 44 45 46 47 48 49 50
000
ASUS45 KCYS 211510
RWRWY

WYOMING REGIONAL WEATHER ROUNDUP
NATIONAL WEATHER SERVICE CHEYENNE WY
900 AM MDT FRI JUL 21 2017

NOTE:  "FAIR" INDICATES FEW OR NO CLOUDS BELOW 12,000 FEET
WITH NO SIGNIFICANT WEATHER AND/OR OBSTRUCTIONS TO VISIBILITY.

WYZ001-211600-
YELLOWSTONE NATIONAL PARK

CITY           SKY/WX    TMP DP  RH WIND       PRES   REMARKS
LK YELLOWSTONE   N/A     55  48  77 CALM      30.35R
W YELLOWSTONE  NOT AVBL

$$
WYZ002>013-054>058-071-098>099-211600-
NORTHERN WYOMING

CITY           SKY/WX    TMP DP  RH WIND       PRES   REMARKS
JACKSON        SUNNY     55  52  88 VRB5      30.27R
CODY           FAIR      71  45  39 NW5       30.16R
GREYBULL       FAIR      69  59  70 W3        30.05R
WORLAND        FAIR      68  58  70 CALM      30.08R
SHERIDAN       FAIR      78  42  27 NW15      30.05R
BUFFALO        FAIR      73  40  30 NW20G25   30.10R
GILLETTE       FAIR      76  43  30 NW20      30.03R
HULETT         FAIR      72  55  56 W9        30.03R
NEWCASTLE      FAIR      72  57  60 NW12      30.02R

$$
WYZ014>020-022>026-101>103-211600-
CENTRAL WYOMING

CITY           SKY/WX    TMP DP  RH WIND       PRES   REMARKS
BIG PINEY      PTSUNNY   61  57  87 CALM      30.30R
PINEDALE       PTSUNNY   59  52  77 MISG      30.32R
DUBOIS         FAIR      55  39  54 NW8       30.27S
LANDER         FAIR      67  58  72 VRB3      30.16R
RIVERTON       FAIR      65  55  70 NW6       30.16R
CASPER         FAIR      75  50  41 SW15      30.13R
DOUGLAS        FAIR      77  56  48 NW14      30.09R

$$
WYZ021-027>030-104>119-211600-
SOUTHERN WYOMING

CITY           SKY/WX    TMP DP  RH WIND       PRES   REMARKS
EVANSTON       FAIR      68  53  58 VRB3      30.30R
KEMMERER         N/A     66  50  55 CALM      30.33R
FORT BRIDGER   PTSUNNY   65  55  69 N6        30.32R
ROCK SPRINGS   FAIR      62  55  77 S6        30.28R
RAWLINS        FAIR      69  51  52 CALM      30.29R
SARATOGA       FAIR      70  50  49 S5        30.31R
LARAMIE        FAIR      66  52  60 S5        30.28R
CHEYENNE       FAIR      78  49  35 W14       30.17R
TORRINGTON     FAIR      75  60  59 CALM      30.01R
PINE BLUFFS    FAIR      81  48  32 W8        30.11R

$$



USA.gov is the U.S. government's official web portal to all federal, state and local government web resources and services.